Time,TemperatureF,DewpointF,PressureIn,WindDirection,WindDirectionDegrees,WindSpeedMPH,WindSpeedGustMPH,Humidity,HourlyPrecipIn,Conditions,Clouds,dailyrainin,SoftwareType,DateUTC
2013-10-19 00:02:00,43.5,32.9,29.99,NE,55,4.0,6.0,66,0.00,,,0.00,LWC V2.10 B1813,2013-10-19 08:02:00,
2013-10-19 00:07:00,43.3,32.3,29.98,ENE,66,4.0,8.0,65,0.00,,,0.00,LWC V2.10 B1813,2013-10-19 08:07:00,
2013-10-19 00:12:00,43.3,32.3,29.99,ENE,61,4.0,6.0,65,0.00,,,0.00,LWC V2.10 B1813,2013-10-19 08:12:00,
2013-10-19 00:17:00,43.2,32.6,29.98,NE,52,4.0,8.0,66,0.00,,,0.00,LWC V2.10 B1813,2013-10-19 08:17:00,
2013-10-19 00:20:00,43.1,32.5,29.99,ENE,58,4.0,9.0,66,0.00,,,0.00,LWC V2.10 B1813,2013-10-19 08:20:00,
2013-10-19 00:22:00,43.1,32.5,29.99,ENE,61,5.0,8.0,66,0.00,,,0.00,LWC V2.10 B1813,2013-10-19 08:22:00,
2013-10-19 00:27:00,43.2,32.6,29.98,East,79,6.0,9.0,66,0.00,,,0.00,LWC V2.10 B1813,2013-10-19 08:27:00,
2013-10-19 00:30:00,43.3,32.3,29.98,ENE,59,5.0,9.0,65,0.00,,,0.00,LWC V2.10 B1813,2013-10-19 08:30:00,
2013-10-19 00:40:00,43.4,32.0,29.99,ENE,72,4.0,9.0,64,0.00,,,0.00,LWC V2.10 B1813,2013-10-19 08:40:00,
2013-10-19 00:50:00,43.4,32.0,29.98,ENE,76,4.0,9.0,64,0.00,,,0.00,LWC V2.10 B1813,2013-10-19 08:50:00,
2013-10-19 01:00:00,43.5,31.8,29.98,East,84,5.0,10.0,63,0.00,,,0.00,LWC V2.10 B1813,2013-10-19 09:00:00,
2013-10-19 01:10:00,43.3,31.6,29.97,East,84,4.0,10.0,63,0.00,,,0.00,LWC V2.10 B1813,2013-10-19 09:10:00,
2013-10-19 01:20:00,43.3,30.8,29.97,ENE,76,6.0,10.0,61,0.00,,,0.00,LWC V2.10 B1813,2013-10-19 09:20:00,
2013-10-19 01:33:00,43.4,30.5,29.96,NE,55,5.0,7.0,60,0.00,,,0.00,LWC V2.10 B1813,2013-10-19 09:33:00,
2013-10-19 01:38:00,43.2,30.7,29.97,ENE,78,4.0,7.0,61,0.00,,,0.00,LWC V2.10 B1813,2013-10-19 09:38:00,
2013-10-19 01:43:00,43.0,30.5,29.97,NE,48,5.0,8.0,61,0.00,,,0.00,LWC V2.10 B1813,2013-10-19 09:43:00,
2013-10-19 01:48:00,42.9,30.4,29.97,ENE,57,5.0,8.0,61,0.00,,,0.00,LWC V2.10 B1813,2013-10-19 09:48:00,
2013-10-19 01:53:00,42.8,29.5,29.97,ENE,65,7.0,9.0,59,0.00,,,0.00,LWC V2.10 B1813,2013-10-19 09:53:00,
2013-10-19 01:58:00,42.9,29.2,29.97,ENE,65,5.0,10.0,58,0.00,,,0.00,LWC V2.10 B1813,2013-10-19 09:58:00,
2013-10-19 02:03:00,43.0,29.2,29.97,NE,54,6.0,9.0,58,0.00,,,0.00,LWC V2.10 B1813,2013-10-19 10:03:00,
2013-10-19 02:08:00,43.1,29.3,29.97,ENE,60,4.0,7.0,58,0.00,,,0.00,LWC V2.10 B1813,2013-10-19 10:08:00,
2013-10-19 02:13:00,43.0,28.8,29.97,East,79,3.0,6.0,57,0.00,,,0.00,LWC V2.10 B1813,2013-10-19 10:13:00,
2013-10-19 02:18:00,42.9,29.2,29.96,NE,53,7.0,8.0,58,0.00,,,0.00,LWC V2.10 B1813,2013-10-19 10:18:00,
2013-10-19 02:23:00,42.8,28.6,29.96,ENE,69,5.0,7.0,57,0.00,,,0.00,LWC V2.10 B1813,2013-10-19 10:23:00,
2013-10-19 02:28:00,42.7,28.5,29.96,NE,50,2.0,7.0,57,0.00,,,0.00,LWC V2.10 B1813,2013-10-19 10:28:00,
2013-10-19 02:33:00,42.7,28.5,29.96,ENE,75,3.0,7.0,57,0.00,,,0.00,LWC V2.10 B1813,2013-10-19 10:33:00,
2013-10-19 02:38:00,42.7,28.1,29.96,East,80,8.0,8.0,56,0.00,,,0.00,LWC V2.10 B1813,2013-10-19 10:38:00,
2013-10-19 02:43:00,42.7,28.1,29.96,ENE,60,3.0,7.0,56,0.00,,,0.00,LWC V2.10 B1813,2013-10-19 10:43:00,
2013-10-19 02:48:00,42.6,28.0,29.96,ENE,63,4.0,9.0,56,0.00,,,0.00,LWC V2.10 B1813,2013-10-19 10:48:00,
2013-10-19 02:53:00,42.6,28.0,29.96,East,84,5.0,8.0,56,0.00,,,0.00,LWC V2.10 B1813,2013-10-19 10:53:00,
2013-10-19 02:58:00,42.5,28.4,29.96,NE,45,3.0,4.0,57,0.00,,,0.00,LWC V2.10 B1813,2013-10-19 10:58:00,
2013-10-19 03:03:00,42.1,27.5,29.96,NE,49,3.0,6.0,56,0.00,,,0.00,LWC V2.10 B1813,2013-10-19 11:03:00,
2013-10-19 03:08:00,41.9,27.8,29.96,NE,55,5.0,8.0,57,0.00,,,0.00,LWC V2.10 B1813,2013-10-19 11:08:00,
2013-10-19 03:13:00,42.3,27.7,29.95,NE,45,6.0,10.0,56,0.00,,,0.00,LWC V2.10 B1813,2013-10-19 11:13:00,
2013-10-19 03:18:00,42.4,27.8,29.95,NE,50,5.0,9.0,56,0.00,,,0.00,LWC V2.10 B1813,2013-10-19 11:18:00,
2013-10-19 03:23:00,42.4,27.4,29.95,NE,49,9.0,11.0,55,0.00,,,0.00,LWC V2.10 B1813,2013-10-19 11:23:00,
2013-10-19 03:28:00,42.8,27.3,29.95,ENE,70,5.0,11.0,54,0.00,,,0.00,LWC V2.10 B1813,2013-10-19 11:28:00,
2013-10-19 03:33:00,43.1,27.6,29.95,NE,55,7.0,10.0,54,0.00,,,0.00,LWC V2.10 B1813,2013-10-19 11:33:00,
2013-10-19 03:38:00,43.1,27.1,29.95,East,82,5.0,9.0,53,0.00,,,0.00,LWC V2.10 B1813,2013-10-19 11:38:00,
2013-10-19 03:43:00,43.1,27.1,29.95,ENE,75,7.0,11.0,53,0.00,,,0.00,LWC V2.10 B1813,2013-10-19 11:43:00,
2013-10-19 03:48:00,43.2,27.2,29.95,NE,55,3.0,9.0,53,0.00,,,0.00,LWC V2.10 B1813,2013-10-19 11:48:00,
2013-10-19 03:53:00,43.0,27.1,29.95,East,92,6.0,8.0,53,0.00,,,0.00,LWC V2.10 B1813,2013-10-19 11:53:00,
2013-10-19 03:58:00,42.9,27.0,29.95,East,99,5.0,9.0,53,0.00,,,0.00,LWC V2.10 B1813,2013-10-19 11:58:00,
2013-10-19 04:03:00,42.8,26.9,29.95,East,86,5.0,7.0,53,0.00,,,0.00,LWC V2.10 B1813,2013-10-19 12:03:00,
2013-10-19 04:08:00,42.8,27.3,29.94,ENE,71,8.0,9.0,54,0.00,,,0.00,LWC V2.10 B1813,2013-10-19 12:08:00,
2013-10-19 04:13:00,42.8,27.3,29.93,ENE,57,4.0,10.0,54,0.00,,,0.00,LWC V2.10 B1813,2013-10-19 12:13:00,
2013-10-19 04:18:00,42.9,27.0,29.93,East,93,7.0,11.0,53,0.00,,,0.00,LWC V2.10 B1813,2013-10-19 12:18:00,
2013-10-19 04:23:00,43.1,27.1,29.93,ENE,62,8.0,10.0,53,0.00,,,0.00,LWC V2.10 B1813,2013-10-19 12:23:00,
2013-10-19 04:28:00,43.2,27.2,29.92,ENE,69,4.0,10.0,53,0.00,,,0.00,LWC V2.10 B1813,2013-10-19 12:28:00,
2013-10-19 04:33:00,43.3,27.3,29.91,ENE,65,10.0,12.0,53,0.00,,,0.00,LWC V2.10 B1813,2013-10-19 12:33:00,
2013-10-19 04:38:00,43.5,27.1,29.91,ENE,61,11.0,13.0,52,0.00,,,0.00,LWC V2.10 B1813,2013-10-19 12:38:00,
2013-10-19 04:43:00,43.6,27.6,29.91,NNE,29,4.0,8.0,53,0.00,,,0.00,LWC V2.10 B1813,2013-10-19 12:43:00,
2013-10-19 04:48:00,43.4,27.4,29.91,NE,42,6.0,10.0,53,0.00,,,0.00,LWC V2.10 B1813,2013-10-19 12:48:00,
2013-10-19 04:53:00,43.3,27.3,29.91,NE,37,5.0,11.0,53,0.00,,,0.00,LWC V2.10 B1813,2013-10-19 12:53:00,
2013-10-19 04:58:00,43.3,27.3,29.90,NE,40,7.0,13.0,53,0.00,,,0.00,LWC V2.10 B1813,2013-10-19 12:58:00,
2013-10-19 05:03:00,43.6,27.6,29.90,NNE,24,10.0,12.0,53,0.00,,,0.00,LWC V2.10 B1813,2013-10-19 13:03:00,
2013-10-19 05:08:00,43.8,27.8,29.90,ENE,63,4.0,11.0,53,0.00,,,0.00,LWC V2.10 B1813,2013-10-19 13:08:00,
2013-10-19 05:13:00,43.9,27.9,29.90,ENE,58,9.0,11.0,53,0.00,,,0.00,LWC V2.10 B1813,2013-10-19 13:13:00,
2013-10-19 05:18:00,43.9,27.9,29.90,ENE,63,1.0,8.0,53,0.00,,,0.00,LWC V2.10 B1813,2013-10-19 13:18:00,
2013-10-19 05:23:00,43.8,27.8,29.91,ENE,58,2.0,5.0,53,0.00,,,0.00,LWC V2.10 B1813,2013-10-19 13:23:00,
2013-10-19 05:28:00,43.7,28.2,29.90,NE,56,6.0,11.0,54,0.00,,,0.00,LWC V2.10 B1813,2013-10-19 13:28:00,
2013-10-19 05:33:00,43.9,28.3,29.90,ENE,78,11.0,14.0,54,0.00,,,0.00,LWC V2.10 B1813,2013-10-19 13:33:00,
2013-10-19 05:38:00,44.0,28.0,29.90,ENE,65,10.0,15.0,53,0.00,,,0.00,LWC V2.10 B1813,2013-10-19 13:38:00,
2013-10-19 05:43:00,44.2,28.2,29.89,ENE,64,3.0,15.0,53,0.00,,,0.00,LWC V2.10 B1813,2013-10-19 13:43:00,
2013-10-19 05:48:00,44.3,28.3,29.89,NE,44,11.0,13.0,53,0.00,,,0.00,LWC V2.10 B1813,2013-10-19 13:48:00,
2013-10-19 05:53:00,44.2,28.2,29.89,NE,46,10.0,13.0,53,0.00,,,0.00,LWC V2.10 B1813,2013-10-19 13:53:00,
2013-10-19 05:58:00,44.3,28.3,29.89,East,85,9.0,16.0,53,0.00,,,0.00,LWC V2.10 B1813,2013-10-19 13:58:00,
2013-10-19 06:03:00,44.6,28.1,29.89,ENE,57,10.0,15.0,52,0.00,,,0.00,LWC V2.10 B1813,2013-10-19 14:03:00,
2013-10-19 06:08:00,44.8,27.8,29.88,ENE,74,12.0,17.0,51,0.00,,,0.00,LWC V2.10 B1813,2013-10-19 14:08:00,
2013-10-19 06:13:00,44.9,27.9,29.88,ENE,63,8.0,12.0,51,0.00,,,0.00,LWC V2.10 B1813,2013-10-19 14:13:00,
2013-10-19 06:18:00,44.8,27.8,29.88,NE,46,5.0,13.0,51,0.00,,,0.00,LWC V2.10 B1813,2013-10-19 14:18:00,
2013-10-19 06:23:00,44.9,27.9,29.88,NE,42,9.0,12.0,51,0.00,,,0.00,LWC V2.10 B1813,2013-10-19 14:23:00,
2013-10-19 06:28:00,45.0,28.0,29.87,NE,51,8.0,13.0,51,0.00,,,0.00,LWC V2.10 B1813,2013-10-19 14:28:00,
2013-10-19 06:33:00,45.0,28.0,29.87,NE,55,7.0,12.0,51,0.00,,,0.00,LWC V2.10 B1813,2013-10-19 14:33:00,
2013-10-19 06:38:00,45.2,28.2,29.86,ENE,57,9.0,17.0,51,0.00,,,0.00,LWC V2.10 B1813,2013-10-19 14:38:00,
2013-10-19 06:43:00,45.3,28.2,29.86,ENE,69,8.0,15.0,51,0.00,,,0.00,LWC V2.10 B1813,2013-10-19 14:43:00,
2013-10-19 06:48:00,45.4,28.3,29.86,East,82,8.0,12.0,51,0.00,,,0.00,LWC V2.10 B1813,2013-10-19 14:48:00,
2013-10-19 06:53:00,45.5,28.4,29.86,ENE,59,9.0,9.0,51,0.00,,,0.00,LWC V2.10 B1813,2013-10-19 14:53:00,
2013-10-19 06:58:00,45.3,28.2,29.86,NE,53,6.0,13.0,51,0.00,,,0.00,LWC V2.10 B1813,2013-10-19 14:58:00,
2013-10-19 07:03:00,45.1,28.5,29.85,ENE,57,8.0,10.0,52,0.00,,,0.00,LWC V2.10 B1813,2013-10-19 15:03:00,
2013-10-19 07:08:00,45.3,28.7,29.85,NNE,29,8.0,15.0,52,0.00,,,0.00,LWC V2.10 B1813,2013-10-19 15:08:00,
2013-10-19 07:13:00,45.4,28.8,29.85,NE,55,7.0,13.0,52,0.00,,,0.00,LWC V2.10 B1813,2013-10-19 15:13:00,
2013-10-19 07:18:00,45.6,29.0,29.84,ENE,59,8.0,12.0,52,0.00,,,0.00,LWC V2.10 B1813,2013-10-19 15:18:00,
2013-10-19 07:23:00,45.6,29.0,29.83,NNE,30,7.0,12.0,52,0.00,,,0.00,LWC V2.10 B1813,2013-10-19 15:23:00,
2013-10-19 07:28:00,45.6,29.0,29.83,NE,45,6.0,11.0,52,0.00,,,0.00,LWC V2.10 B1813,2013-10-19 15:28:00,
2013-10-19 07:33:00,45.5,29.4,29.83,ESE,102,9.0,12.0,53,0.00,,,0.00,LWC V2.10 B1813,2013-10-19 15:33:00,
2013-10-19 07:38:00,45.6,29.0,29.83,NE,45,7.0,11.0,52,0.00,,,0.00,LWC V2.10 B1813,2013-10-19 15:38:00,
2013-10-19 07:43:00,45.8,29.7,29.82,ENE,58,8.0,16.0,53,0.00,,,0.00,LWC V2.10 B1813,2013-10-19 15:43:00,
2013-10-19 07:48:00,45.8,29.2,29.82,ENE,60,13.0,13.0,52,0.00,,,0.00,LWC V2.10 B1813,2013-10-19 15:48:00,
2013-10-19 07:53:00,45.9,29.3,29.82,East,91,7.0,13.0,52,0.00,,,0.00,LWC V2.10 B1813,2013-10-19 15:53:00,
2013-10-19 07:58:00,46.0,28.9,29.81,ENE,74,11.0,15.0,51,0.00,,,0.00,LWC V2.10 B1813,2013-10-19 15:58:00,
2013-10-19 08:03:00,46.1,29.0,29.81,NE,41,9.0,13.0,51,0.00,,,0.00,LWC V2.10 B1813,2013-10-19 16:03:00,
2013-10-19 08:08:00,46.1,29.0,29.82,NE,49,6.0,11.0,51,0.00,,,0.00,LWC V2.10 B1813,2013-10-19 16:08:00,
2013-10-19 08:13:00,46.2,29.1,29.81,NE,44,10.0,13.0,51,0.00,,,0.00,LWC V2.10 B1813,2013-10-19 16:13:00,
2013-10-19 08:18:00,46.2,29.1,29.81,ENE,73,11.0,11.0,51,0.00,,,0.00,LWC V2.10 B1813,2013-10-19 16:18:00,
2013-10-19 08:23:00,46.2,28.6,29.81,ENE,76,5.0,12.0,50,0.00,,,0.00,LWC V2.10 B1813,2013-10-19 16:23:00,
2013-10-19 08:28:00,46.3,28.7,29.80,ENE,77,10.0,14.0,50,0.00,,,0.00,LWC V2.10 B1813,2013-10-19 16:28:00,
2013-10-19 08:33:00,46.4,28.8,29.80,ENE,75,16.0,17.0,50,0.00,,,0.00,LWC V2.10 B1813,2013-10-19 16:33:00,
2013-10-19 08:38:00,46.4,28.3,29.80,ENE,63,9.0,9.0,49,0.00,,,0.00,LWC V2.10 B1813,2013-10-19 16:38:00,
2013-10-19 08:43:00,46.5,28.4,29.79,NE,55,9.0,11.0,49,0.00,,,0.00,LWC V2.10 B1813,2013-10-19 16:43:00,
2013-10-19 08:48:00,46.5,28.4,29.79,ENE,61,10.0,13.0,49,0.00,,,0.00,LWC V2.10 B1813,2013-10-19 16:48:00,
2013-10-19 08:53:00,46.6,28.0,29.79,NE,52,12.0,18.0,48,0.00,,,0.00,LWC V2.10 B1813,2013-10-19 16:53:00,
2013-10-19 08:58:00,46.7,28.6,29.78,East,92,8.0,17.0,49,0.00,,,0.00,LWC V2.10 B1813,2013-10-19 16:58:00,
2013-10-19 09:03:00,46.7,28.1,29.78,East,84,5.0,19.0,48,0.00,,,0.00,LWC V2.10 B1813,2013-10-19 17:03:00,
2013-10-19 09:08:00,46.7,28.1,29.78,ENE,63,9.0,18.0,48,0.00,,,0.00,LWC V2.10 B1813,2013-10-19 17:08:00,
2013-10-19 09:13:00,46.7,28.1,29.78,ENE,68,11.0,16.0,48,0.00,,,0.00,LWC V2.10 B1813,2013-10-19 17:13:00,
2013-10-19 09:18:00,46.8,28.2,29.78,East,95,7.0,16.0,48,0.00,,,0.00,LWC V2.10 B1813,2013-10-19 17:18:00,
2013-10-19 09:23:00,46.7,28.6,29.78,ENE,70,8.0,14.0,49,0.00,,,0.00,LWC V2.10 B1813,2013-10-19 17:23:00,
2013-10-19 09:28:00,46.7,28.6,29.78,ENE,60,15.0,16.0,49,0.00,,,0.00,LWC V2.10 B1813,2013-10-19 17:28:00,
2013-10-19 09:33:00,46.7,28.6,29.77,East,91,8.0,13.0,49,0.00,,,0.00,LWC V2.10 B1813,2013-10-19 17:33:00,
2013-10-19 09:38:00,46.6,28.5,29.77,ESE,120,10.0,15.0,49,0.00,,,0.00,LWC V2.10 B1813,2013-10-19 17:38:00,
2013-10-19 09:43:00,46.6,28.5,29.77,ENE,78,13.0,17.0,49,0.00,,,0.00,LWC V2.10 B1813,2013-10-19 17:43:00,
2013-10-19 09:48:00,46.6,28.5,29.76,ENE,61,7.0,14.0,49,0.00,,,0.00,LWC V2.10 B1813,2013-10-19 17:48:00,
2013-10-19 09:53:00,46.4,28.8,29.75,NE,55,10.0,17.0,50,0.00,,,0.00,LWC V2.10 B1813,2013-10-19 17:53:00,
2013-10-19 09:58:00,46.4,29.3,29.76,East,87,8.0,13.0,51,0.00,,,0.00,LWC V2.10 B1813,2013-10-19 17:58:00,
2013-10-19 10:03:00,46.4,29.3,29.75,East,100,7.0,16.0,51,0.00,,,0.00,LWC V2.10 B1813,2013-10-19 18:03:00,
2013-10-19 10:08:00,46.4,29.3,29.75,East,87,3.0,14.0,51,0.00,,,0.00,LWC V2.10 B1813,2013-10-19 18:08:00,
2013-10-19 10:13:00,46.3,29.2,29.75,East,82,13.0,17.0,51,0.00,,,0.00,LWC V2.10 B1813,2013-10-19 18:13:00,
2013-10-19 10:18:00,46.5,29.4,29.75,East,91,10.0,10.0,51,0.00,,,0.00,LWC V2.10 B1813,2013-10-19 18:18:00,
2013-10-19 10:23:00,46.6,29.5,29.75,SE,126,10.0,15.0,51,0.00,,,0.00,LWC V2.10 B1813,2013-10-19 18:23:00,
2013-10-19 10:28:00,46.8,29.6,29.75,ESE,114,12.0,13.0,51,0.00,,,0.00,LWC V2.10 B1813,2013-10-19 18:28:00,
2013-10-19 10:33:00,47.0,29.8,29.75,ENE,67,5.0,14.0,51,0.00,,,0.00,LWC V2.10 B1813,2013-10-19 18:33:00,
2013-10-19 10:38:00,47.1,29.9,29.75,NE,46,9.0,17.0,51,0.00,,,0.00,LWC V2.10 B1813,2013-10-19 18:38:00,
2013-10-19 10:43:00,47.1,29.9,29.75,East,79,13.0,13.0,51,0.00,,,0.00,LWC V2.10 B1813,2013-10-19 18:43:00,
2013-10-19 10:48:00,47.3,30.1,29.76,East,87,9.0,15.0,51,0.00,,,0.00,LWC V2.10 B1813,2013-10-19 18:48:00,
2013-10-19 10:53:00,47.3,30.6,29.75,East,82,19.0,19.0,52,0.00,,,0.00,LWC V2.10 B1813,2013-10-19 18:53:00,
2013-10-19 10:58:00,47.4,30.7,29.74,East,82,5.0,11.0,52,0.00,,,0.00,LWC V2.10 B1813,2013-10-19 18:58:00,
2013-10-19 11:03:00,47.4,30.7,29.74,East,95,14.0,18.0,52,0.00,,,0.00,LWC V2.10 B1813,2013-10-19 19:03:00,
2013-10-19 11:08:00,47.5,30.8,29.74,ESE,110,7.0,21.0,52,0.00,,,0.00,LWC V2.10 B1813,2013-10-19 19:08:00,
2013-10-19 11:13:00,47.5,31.2,29.74,East,90,13.0,16.0,53,0.00,,,0.00,LWC V2.10 B1813,2013-10-19 19:13:00,
2013-10-19 11:18:00,47.4,31.1,29.74,East,88,10.0,13.0,53,0.00,,,0.00,LWC V2.10 B1813,2013-10-19 19:18:00,
2013-10-19 11:23:00,47.5,31.2,29.74,ESE,121,8.0,12.0,53,0.00,,,0.00,LWC V2.10 B1813,2013-10-19 19:23:00,
2013-10-19 11:28:00,47.5,31.2,29.74,East,92,5.0,15.0,53,0.00,,,0.00,LWC V2.10 B1813,2013-10-19 19:28:00,
2013-10-19 11:33:00,47.6,31.3,29.73,ESE,115,8.0,19.0,53,0.00,,,0.00,LWC V2.10 B1813,2013-10-19 19:33:00,
2013-10-19 11:38:00,47.6,31.3,29.74,ESE,105,9.0,16.0,53,0.00,,,0.00,LWC V2.10 B1813,2013-10-19 19:38:00,
2013-10-19 11:43:00,47.7,31.4,29.73,East,79,10.0,15.0,53,0.00,,,0.00,LWC V2.10 B1813,2013-10-19 19:43:00,
2013-10-19 11:48:00,47.8,31.5,29.73,East,79,13.0,14.0,53,0.00,,,0.00,LWC V2.10 B1813,2013-10-19 19:48:00,
2013-10-19 11:53:00,47.8,31.5,29.73,East,92,13.0,16.0,53,0.00,,,0.00,LWC V2.10 B1813,2013-10-19 19:53:00,
2013-10-19 11:58:00,48.1,31.8,29.73,SE,128,6.0,9.0,53,0.00,,,0.00,LWC V2.10 B1813,2013-10-19 19:58:00,
2013-10-19 12:03:00,48.9,32.5,29.73,ESE,119,3.0,14.0,53,0.00,,,0.00,LWC V2.10 B1813,2013-10-19 20:03:00,
2013-10-19 12:08:00,49.7,32.8,29.73,ESE,102,9.0,12.0,52,0.00,,,0.00,LWC V2.10 B1813,2013-10-19 20:08:00,
2013-10-19 12:13:00,50.1,32.7,29.73,ESE,109,4.0,15.0,51,0.00,,,0.00,LWC V2.10 B1813,2013-10-19 20:13:00,
2013-10-19 12:18:00,50.3,32.9,29.73,ESE,109,9.0,11.0,51,0.00,,,0.00,LWC V2.10 B1813,2013-10-19 20:18:00,
2013-10-19 12:23:00,50.4,33.0,29.74,NE,43,8.0,13.0,51,0.00,,,0.00,LWC V2.10 B1813,2013-10-19 20:23:00,
2013-10-19 12:28:00,50.7,33.7,29.73,ESE,106,9.0,16.0,52,0.00,,,0.00,LWC V2.10 B1813,2013-10-19 20:28:00,
2013-10-19 12:33:00,50.7,33.7,29.73,SE,130,12.0,18.0,52,0.00,,,0.00,LWC V2.10 B1813,2013-10-19 20:33:00,
2013-10-19 12:38:00,50.6,33.6,29.74,SE,131,8.0,12.0,52,0.00,,,0.00,LWC V2.10 B1813,2013-10-19 20:38:00,
2013-10-19 12:43:00,50.6,33.6,29.74,ESE,111,7.0,10.0,52,0.00,,,0.00,LWC V2.10 B1813,2013-10-19 20:43:00,
2013-10-19 12:48:00,50.8,33.8,29.74,ESE,114,11.0,13.0,52,0.00,,,0.00,LWC V2.10 B1813,2013-10-19 20:48:00,
2013-10-19 12:53:00,50.9,33.9,29.74,ESE,115,5.0,12.0,52,0.00,,,0.00,LWC V2.10 B1813,2013-10-19 20:53:00,
2013-10-19 12:58:00,51.1,34.1,29.73,ENE,78,4.0,13.0,52,0.00,,,0.00,LWC V2.10 B1813,2013-10-19 20:58:00,
2013-10-19 13:03:00,51.4,34.4,29.73,East,99,6.0,9.0,52,0.00,,,0.00,LWC V2.10 B1813,2013-10-19 21:03:00,
2013-10-19 13:08:00,51.4,34.4,29.73,ESE,106,7.0,16.0,52,0.00,,,0.00,LWC V2.10 B1813,2013-10-19 21:08:00,
2013-10-19 13:13:00,51.1,34.6,29.73,ESE,118,4.0,11.0,53,0.00,,,0.00,LWC V2.10 B1813,2013-10-19 21:13:00,
2013-10-19 13:18:00,51.3,34.8,29.73,SE,128,7.0,11.0,53,0.00,,,0.00,LWC V2.10 B1813,2013-10-19 21:18:00,
2013-10-19 13:23:00,51.7,34.6,29.74,SE,138,9.0,12.0,52,0.00,,,0.00,LWC V2.10 B1813,2013-10-19 21:23:00,
2013-10-19 13:28:00,51.7,34.6,29.74,SSE,148,5.0,8.0,52,0.00,,,0.00,LWC V2.10 B1813,2013-10-19 21:28:00,
2013-10-19 13:33:00,51.9,34.8,29.74,SE,140,8.0,9.0,52,0.00,,,0.00,LWC V2.10 B1813,2013-10-19 21:33:00,
2013-10-19 13:38:00,52.0,34.9,29.74,SE,146,12.0,17.0,52,0.00,,,0.00,LWC V2.10 B1813,2013-10-19 21:38:00,
2013-10-19 13:43:00,52.0,34.9,29.73,SE,130,9.0,12.0,52,0.00,,,0.00,LWC V2.10 B1813,2013-10-19 21:43:00,
2013-10-19 13:48:00,51.7,34.6,29.73,SE,125,9.0,11.0,52,0.00,,,0.00,LWC V2.10 B1813,2013-10-19 21:48:00,
2013-10-19 13:53:00,51.6,34.6,29.73,ESE,122,8.0,12.0,52,0.00,,,0.00,LWC V2.10 B1813,2013-10-19 21:53:00,
2013-10-19 13:58:00,51.7,34.6,29.73,SE,141,4.0,13.0,52,0.00,,,0.00,LWC V2.10 B1813,2013-10-19 21:58:00,
2013-10-19 14:03:00,52.0,34.9,29.73,SE,137,5.0,12.0,52,0.00,,,0.00,LWC V2.10 B1813,2013-10-19 22:03:00,
2013-10-19 14:08:00,52.2,35.1,29.73,SSE,157,4.0,15.0,52,0.00,,,0.00,LWC V2.10 B1813,2013-10-19 22:08:00,
2013-10-19 14:13:00,52.1,35.0,29.73,SE,146,5.0,11.0,52,0.00,,,0.00,LWC V2.10 B1813,2013-10-19 22:13:00,
2013-10-19 14:18:00,52.2,35.1,29.73,East,90,10.0,12.0,52,0.00,,,0.00,LWC V2.10 B1813,2013-10-19 22:18:00,
2013-10-19 14:23:00,52.2,35.1,29.73,SE,138,7.0,15.0,52,0.00,,,0.00,LWC V2.10 B1813,2013-10-19 22:23:00,
2013-10-19 14:28:00,52.2,35.1,29.72,ESE,103,10.0,14.0,52,0.00,,,0.00,LWC V2.10 B1813,2013-10-19 22:28:00,
2013-10-19 14:33:00,52.3,35.2,29.73,ESE,111,8.0,10.0,52,0.00,,,0.00,LWC V2.10 B1813,2013-10-19 22:33:00,
2013-10-19 14:38:00,52.3,35.2,29.73,ENE,78,7.0,10.0,52,0.00,,,0.00,LWC V2.10 B1813,2013-10-19 22:38:00,
2013-10-19 14:43:00,52.5,35.9,29.73,SE,132,9.0,13.0,53,0.00,,,0.00,LWC V2.10 B1813,2013-10-19 22:43:00,
2013-10-19 14:48:00,52.6,36.0,29.73,SSE,165,2.0,13.0,53,0.00,,,0.00,LWC V2.10 B1813,2013-10-19 22:48:00,
2013-10-19 14:53:00,52.1,35.5,29.73,South,179,4.0,6.0,53,0.00,,,0.00,LWC V2.10 B1813,2013-10-19 22:53:00,
2013-10-19 14:58:00,51.6,35.5,29.73,SSE,153,4.0,8.0,54,0.00,,,0.00,LWC V2.10 B1813,2013-10-19 22:58:00,
2013-10-19 15:03:00,51.2,35.6,29.73,SSE,159,4.0,7.0,55,0.00,,,0.00,LWC V2.10 B1813,2013-10-19 23:03:00,
2013-10-19 15:08:00,50.8,35.2,29.73,SE,127,3.0,6.0,55,0.00,,,0.00,LWC V2.10 B1813,2013-10-19 23:08:00,
2013-10-19 15:13:00,50.6,35.5,29.74,SE,131,3.0,9.0,56,0.00,,,0.00,LWC V2.10 B1813,2013-10-19 23:13:00,
2013-10-19 15:18:00,50.4,35.3,29.74,ESE,117,5.0,9.0,56,0.00,,,0.00,LWC V2.10 B1813,2013-10-19 23:18:00,
2013-10-19 15:23:00,50.4,35.7,29.74,SE,141,4.0,10.0,57,0.00,,,0.00,LWC V2.10 B1813,2013-10-19 23:23:00,
2013-10-19 15:28:00,50.5,35.4,29.74,ESE,120,4.0,9.0,56,0.00,,,0.00,LWC V2.10 B1813,2013-10-19 23:28:00,
2013-10-19 15:33:00,50.7,36.0,29.74,SE,146,1.0,3.0,57,0.00,,,0.00,LWC V2.10 B1813,2013-10-19 23:33:00,
2013-10-19 15:38:00,50.8,35.7,29.74,ESE,123,4.0,5.0,56,0.00,,,0.00,LWC V2.10 B1813,2013-10-19 23:38:00,
2013-10-19 15:43:00,50.7,35.6,29.75,SE,128,4.0,7.0,56,0.00,,,0.00,LWC V2.10 B1813,2013-10-19 23:43:00,
2013-10-19 15:48:00,50.6,35.5,29.75,SE,146,4.0,6.0,56,0.00,,,0.00,LWC V2.10 B1813,2013-10-19 23:48:00,
2013-10-19 15:53:00,50.5,36.3,29.75,SE,139,10.0,10.0,58,0.00,,,0.00,LWC V2.10 B1813,2013-10-19 23:53:00,
2013-10-19 15:58:00,50.4,35.7,29.75,SE,146,1.0,8.0,57,0.00,,,0.00,LWC V2.10 B1813,2013-10-19 23:58:00,
2013-10-19 16:03:00,50.4,35.7,29.76,SSE,153,3.0,6.0,57,0.00,,,0.00,LWC V2.10 B1813,2013-10-20 00:03:00,
2013-10-19 16:08:00,50.2,36.0,29.76,SSE,159,4.0,6.0,58,0.00,,,0.00,LWC V2.10 B1813,2013-10-20 00:08:00,
2013-10-19 16:13:00,50.1,35.9,29.76,SSE,158,5.0,8.0,58,0.00,,,0.00,LWC V2.10 B1813,2013-10-20 00:13:00,
2013-10-19 16:18:00,50.0,35.8,29.77,SSW,199,6.0,7.0,58,0.00,,,0.00,LWC V2.10 B1813,2013-10-20 00:18:00,
2013-10-19 16:23:00,49.9,34.8,29.77,SSW,194,4.0,13.0,56,0.00,,,0.00,LWC V2.10 B1813,2013-10-20 00:23:00,
2013-10-19 16:28:00,49.9,32.5,29.77,SSW,207,8.0,15.0,51,0.00,,,0.00,LWC V2.10 B1813,2013-10-20 00:28:00,
2013-10-19 16:33:00,49.7,31.8,29.77,South,173,2.0,9.0,50,0.00,,,0.00,LWC V2.10 B1813,2013-10-20 00:33:00,
2013-10-19 16:38:00,49.6,30.2,29.78,North,0,3.0,18.0,47,0.00,,,0.00,LWC V2.10 B1813,2013-10-20 00:38:00,
2013-10-19 16:43:00,49.4,30.0,29.78,SSE,160,6.0,16.0,47,0.00,,,0.00,LWC V2.10 B1813,2013-10-20 00:43:00,
2013-10-19 16:48:00,49.2,30.9,29.79,SSW,200,9.0,9.0,49,0.00,,,0.00,LWC V2.10 B1813,2013-10-20 00:48:00,
2013-10-19 16:53:00,49.0,30.2,29.79,South,176,8.0,14.0,48,0.00,,,0.00,LWC V2.10 B1813,2013-10-20 00:53:00,
2013-10-19 16:58:00,48.8,30.0,29.79,South,188,6.0,14.0,48,0.00,,,0.00,LWC V2.10 B1813,2013-10-20 00:58:00,
2013-10-19 17:03:00,48.7,29.9,29.79,SSW,200,3.0,16.0,48,0.00,,,0.00,LWC V2.10 B1813,2013-10-20 01:03:00,
2013-10-19 17:08:00,48.7,30.4,29.79,South,171,19.0,19.0,49,0.00,,,0.00,LWC V2.10 B1813,2013-10-20 01:08:00,
2013-10-19 17:13:00,48.8,30.5,29.80,SSE,163,1.0,11.0,49,0.00,,,0.00,LWC V2.10 B1813,2013-10-20 01:13:00,
2013-10-19 17:18:00,48.8,32.9,29.80,SW,236,3.0,18.0,54,0.00,,,0.00,LWC V2.10 B1813,2013-10-20 01:18:00,
2013-10-19 17:23:00,48.5,33.5,29.81,SW,236,12.0,15.0,56,0.00,,,0.00,LWC V2.10 B1813,2013-10-20 01:23:00,
2013-10-19 17:28:00,47.9,34.3,29.82,West,268,3.0,17.0,59,0.00,,,0.00,LWC V2.10 B1813,2013-10-20 01:28:00,
2013-10-19 17:33:00,47.0,34.7,29.82,WSW,257,11.0,23.0,62,0.00,,,0.00,LWC V2.10 B1813,2013-10-20 01:33:00,
2013-10-19 17:38:00,45.8,34.7,29.82,West,271,5.0,17.0,65,0.00,,,0.00,LWC V2.10 B1813,2013-10-20 01:38:00,
2013-10-19 17:43:00,44.9,35.0,29.82,West,271,8.0,19.0,68,0.00,,,0.00,LWC V2.10 B1813,2013-10-20 01:43:00,
2013-10-19 17:48:00,44.1,35.0,29.82,West,271,8.0,20.0,70,0.00,,,0.00,LWC V2.10 B1813,2013-10-20 01:48:00,
2013-10-19 17:53:00,43.4,34.6,29.83,North,0,7.0,19.0,71,0.00,,,0.00,LWC V2.10 B1813,2013-10-20 01:53:00,
2013-10-19 17:58:00,42.9,34.5,29.84,West,275,6.0,11.0,72,0.00,,,0.00,LWC V2.10 B1813,2013-10-20 01:58:00,
2013-10-19 18:03:00,42.4,34.4,29.84,West,265,2.0,13.0,73,0.00,,,0.00,LWC V2.10 B1813,2013-10-20 02:03:00,
2013-10-19 18:08:00,41.9,34.2,29.84,West,279,10.0,13.0,74,0.00,,,0.00,LWC V2.10 B1813,2013-10-20 02:08:00,
2013-10-19 18:13:00,41.5,34.2,29.84,West,277,7.0,13.0,75,0.00,,,0.00,LWC V2.10 B1813,2013-10-20 02:13:00,
2013-10-19 18:18:00,41.2,34.2,29.84,WNW,297,4.0,9.0,76,0.00,,,0.00,LWC V2.10 B1813,2013-10-20 02:18:00,
2013-10-19 18:23:00,41.2,34.5,29.84,NW,316,4.0,10.0,77,0.00,,,0.00,LWC V2.10 B1813,2013-10-20 02:23:00,
2013-10-19 18:28:00,41.2,34.2,29.85,West,264,5.0,9.0,76,0.00,,,0.00,LWC V2.10 B1813,2013-10-20 02:28:00,
2013-10-19 18:33:00,41.3,34.3,29.85,WNW,303,0.0,7.0,76,0.00,,,0.00,LWC V2.10 B1813,2013-10-20 02:33:00,
2013-10-19 18:38:00,41.3,34.3,29.85,North,0,0.0,7.0,76,0.00,,,0.00,LWC V2.10 B1813,2013-10-20 02:38:00,
2013-10-19 18:43:00,41.3,34.0,29.85,West,267,0.0,3.0,75,0.00,,,0.00,LWC V2.10 B1813,2013-10-20 02:43:00,
2013-10-19 18:48:00,41.5,33.8,29.85,West,259,1.0,2.0,74,0.00,,,0.00,LWC V2.10 B1813,2013-10-20 02:48:00,
2013-10-19 18:53:00,41.6,33.9,29.86,SSW,210,5.0,5.0,74,0.00,,,0.00,LWC V2.10 B1813,2013-10-20 02:53:00,
2013-10-19 18:58:00,41.6,33.9,29.86,SW,217,2.0,4.0,74,0.00,,,0.00,LWC V2.10 B1813,2013-10-20 02:58:00,
2013-10-19 19:03:00,41.5,33.5,29.86,SSW,196,2.0,7.0,73,0.00,,,0.00,LWC V2.10 B1813,2013-10-20 03:03:00,
2013-10-19 19:08:00,41.4,33.4,29.86,SSW,195,0.0,1.0,73,0.00,,,0.00,LWC V2.10 B1813,2013-10-20 03:08:00,
2013-10-19 19:13:00,41.4,33.4,29.87,SSW,195,1.0,3.0,73,0.00,,,0.00,LWC V2.10 B1813,2013-10-20 03:13:00,
2013-10-19 19:18:00,41.3,33.6,29.87,SSW,195,0.0,0.0,74,0.00,,,0.00,LWC V2.10 B1813,2013-10-20 03:18:00,
2013-10-19 19:23:00,41.2,33.6,29.87,SSW,194,1.0,2.0,74,0.00,,,0.00,LWC V2.10 B1813,2013-10-20 03:23:00,
2013-10-19 19:28:00,41.1,33.5,29.87,SSW,195,0.0,1.0,74,0.00,,,0.00,LWC V2.10 B1813,2013-10-20 03:28:00,
2013-10-19 19:33:00,41.0,33.7,29.87,SSW,195,0.0,0.0,75,0.00,,,0.00,LWC V2.10 B1813,2013-10-20 03:33:00,
2013-10-19 19:38:00,40.9,33.6,29.88,SSW,195,0.0,2.0,75,0.00,,,0.00,LWC V2.10 B1813,2013-10-20 03:38:00,
2013-10-19 19:43:00,40.8,33.5,29.88,SSW,192,2.0,3.0,75,0.00,,,0.00,LWC V2.10 B1813,2013-10-20 03:43:00,
2013-10-19 19:48:00,40.9,33.3,29.88,SSW,193,0.0,1.0,74,0.00,,,0.00,LWC V2.10 B1813,2013-10-20 03:48:00,
2013-10-19 19:53:00,40.9,33.3,29.88,SSW,194,0.0,0.0,74,0.00,,,0.00,LWC V2.10 B1813,2013-10-20 03:53:00,
2013-10-19 19:58:00,41.0,33.4,29.89,SSW,193,0.0,0.0,74,0.00,,,0.00,LWC V2.10 B1813,2013-10-20 03:58:00,
2013-10-19 20:01:00,40.9,33.3,29.89,SSW,194,0.0,3.0,74,0.00,,,0.00,LWC V2.10 B1813,2013-10-20 04:01:00,
2013-10-19 20:06:00,40.9,33.6,29.89,South,182,2.0,3.0,75,0.00,,,0.00,LWC V2.10 B1813,2013-10-20 04:06:00,
2013-10-19 20:11:00,40.9,33.6,29.90,South,183,3.0,3.0,75,0.00,,,0.00,LWC V2.10 B1813,2013-10-20 04:11:00,
2013-10-19 20:16:00,41.0,33.7,29.90,ENE,78,2.0,3.0,75,0.00,,,0.00,LWC V2.10 B1813,2013-10-20 04:16:00,
2013-10-19 20:21:00,41.0,33.4,29.90,East,83,1.0,2.0,74,0.00,,,0.00,LWC V2.10 B1813,2013-10-20 04:21:00,
2013-10-19 20:26:00,40.8,33.2,29.90,East,83,1.0,2.0,74,0.00,,,0.00,LWC V2.10 B1813,2013-10-20 04:26:00,
2013-10-19 20:31:00,40.6,33.0,29.90,ESE,119,2.0,3.0,74,0.00,,,0.00,LWC V2.10 B1813,2013-10-20 04:31:00,
2013-10-19 20:36:00,40.4,33.1,29.90,SSE,148,1.0,2.0,75,0.00,,,0.00,LWC V2.10 B1813,2013-10-20 04:36:00,
2013-10-19 20:41:00,40.1,32.8,29.91,SSE,148,0.0,0.0,75,0.00,,,0.00,LWC V2.10 B1813,2013-10-20 04:41:00,
2013-10-19 20:46:00,39.9,32.6,29.91,SSE,148,0.0,1.0,75,0.00,,,0.00,LWC V2.10 B1813,2013-10-20 04:46:00,
2013-10-19 20:51:00,39.6,32.3,29.91,SSE,148,0.0,0.0,75,0.00,,,0.00,LWC V2.10 B1813,2013-10-20 04:51:00,
2013-10-19 20:56:00,39.3,32.4,29.91,SE,146,0.0,0.0,76,0.00,,,0.00,LWC V2.10 B1813,2013-10-20 04:56:00,
2013-10-19 21:01:00,38.9,32.3,29.91,SSE,148,0.0,2.0,77,0.00,,,0.00,LWC V2.10 B1813,2013-10-20 05:01:00,
2013-10-19 21:06:00,38.6,32.3,29.92,SSE,148,2.0,3.0,78,0.00,,,0.00,LWC V2.10 B1813,2013-10-20 05:06:00,
2013-10-19 21:11:00,38.5,32.6,29.92,SSE,148,1.0,3.0,79,0.00,,,0.00,LWC V2.10 B1813,2013-10-20 05:11:00,
2013-10-19 21:16:00,38.6,33.0,29.92,SSE,148,2.0,3.0,80,0.00,,,0.00,LWC V2.10 B1813,2013-10-20 05:16:00,
2013-10-19 21:21:00,38.8,32.9,29.92,SE,146,2.0,3.0,79,0.00,,,0.00,LWC V2.10 B1813,2013-10-20 05:21:00,
2013-10-19 21:26:00,39.1,32.8,29.92,SE,140,0.0,0.0,78,0.00,,,0.00,LWC V2.10 B1813,2013-10-20 05:26:00,
2013-10-19 21:31:00,39.1,32.8,29.92,SE,140,0.0,0.0,78,0.00,,,0.00,LWC V2.10 B1813,2013-10-20 05:31:00,
2013-10-19 21:36:00,38.9,32.6,29.93,SE,140,0.0,0.0,78,0.00,,,0.00,LWC V2.10 B1813,2013-10-20 05:36:00,
2013-10-19 21:41:00,38.7,32.8,29.93,SE,139,0.0,0.0,79,0.00,,,0.00,LWC V2.10 B1813,2013-10-20 05:41:00,
2013-10-19 21:46:00,38.5,32.6,29.93,SE,140,0.0,1.0,79,0.00,,,0.00,LWC V2.10 B1813,2013-10-20 05:46:00,
2013-10-19 21:51:00,38.4,32.5,29.93,SE,140,0.0,0.0,79,0.00,,,0.00,LWC V2.10 B1813,2013-10-20 05:51:00,
2013-10-19 21:56:00,38.4,32.8,29.93,SE,138,0.0,0.0,80,0.00,,,0.00,LWC V2.10 B1813,2013-10-20 05:56:00,
2013-10-19 22:01:00,38.6,32.7,29.94,SE,130,4.0,4.0,79,0.00,,,0.00,LWC V2.10 B1813,2013-10-20 06:01:00,
2013-10-19 22:06:00,39.0,33.0,29.94,ESE,111,4.0,5.0,79,0.00,,,0.00,LWC V2.10 B1813,2013-10-20 06:06:00,
2013-10-19 22:11:00,39.1,33.1,29.94,East,95,5.0,6.0,79,0.00,,,0.00,LWC V2.10 B1813,2013-10-20 06:11:00,
2013-10-19 22:16:00,39.0,33.0,29.95,ENE,71,4.0,5.0,79,0.00,,,0.00,LWC V2.10 B1813,2013-10-20 06:16:00,
2013-10-19 22:21:00,39.3,33.0,29.95,East,97,3.0,6.0,78,0.00,,,0.00,LWC V2.10 B1813,2013-10-20 06:21:00,
2013-10-19 22:26:00,39.7,33.4,29.95,ESE,109,3.0,7.0,78,0.00,,,0.00,LWC V2.10 B1813,2013-10-20 06:26:00,
2013-10-19 22:31:00,39.8,33.2,29.96,ESE,113,3.0,4.0,77,0.00,,,0.00,LWC V2.10 B1813,2013-10-20 06:31:00,
2013-10-19 22:36:00,39.7,33.1,29.96,SE,127,0.0,4.0,77,0.00,,,0.00,LWC V2.10 B1813,2013-10-20 06:36:00,
2013-10-19 22:41:00,39.6,33.3,29.96,SE,138,2.0,4.0,78,0.00,,,0.00,LWC V2.10 B1813,2013-10-20 06:41:00,
2013-10-19 22:46:00,39.5,33.2,29.97,SSE,154,0.0,3.0,78,0.00,,,0.00,LWC V2.10 B1813,2013-10-20 06:46:00,
2013-10-19 22:51:00,39.4,33.4,29.97,SSE,153,0.0,3.0,79,0.00,,,0.00,LWC V2.10 B1813,2013-10-20 06:51:00,
2013-10-19 22:56:00,39.2,33.2,29.97,East,85,0.0,6.0,79,0.00,,,0.00,LWC V2.10 B1813,2013-10-20 06:56:00,
2013-10-19 23:01:00,39.0,33.4,29.98,South,171,0.0,1.0,80,0.00,,,0.00,LWC V2.10 B1813,2013-10-20 07:01:00,
2013-10-19 23:06:00,38.8,33.2,29.98,South,171,0.0,1.0,80,0.00,,,0.00,LWC V2.10 B1813,2013-10-20 07:06:00,
2013-10-19 23:11:00,38.6,33.0,29.98,South,172,0.0,0.0,80,0.00,,,0.00,LWC V2.10 B1813,2013-10-20 07:11:00,
2013-10-19 23:16:00,38.3,32.7,29.98,South,171,0.0,2.0,80,0.00,,,0.00,LWC V2.10 B1813,2013-10-20 07:16:00,
2013-10-19 23:21:00,38.0,32.7,29.98,SSE,150,0.0,0.0,81,0.00,,,0.00,LWC V2.10 B1813,2013-10-20 07:21:00,
2013-10-19 23:26:00,37.8,32.5,29.99,SSE,152,1.0,2.0,81,0.00,,,0.00,LWC V2.10 B1813,2013-10-20 07:26:00,
2013-10-19 23:31:00,37.9,32.9,29.99,SE,136,1.0,2.0,82,0.00,,,0.00,LWC V2.10 B1813,2013-10-20 07:31:00,
2013-10-19 23:36:00,38.0,32.7,29.99,SE,136,0.0,0.0,81,0.00,,,0.00,LWC V2.10 B1813,2013-10-20 07:36:00,
2013-10-19 23:41:00,37.9,32.6,29.99,SE,137,0.0,0.0,81,0.00,,,0.00,LWC V2.10 B1813,2013-10-20 07:41:00,
2013-10-19 23:46:00,37.6,32.3,29.99,SE,136,0.0,1.0,81,0.00,,,0.00,LWC V2.10 B1813,2013-10-20 07:46:00,
2013-10-19 23:51:00,37.4,32.4,29.99,SE,137,0.0,2.0,82,0.00,,,0.00,LWC V2.10 B1813,2013-10-20 07:51:00,
2013-10-19 23:56:00,37.2,32.2,30.00,SE,136,0.0,0.0,82,0.00,,,0.00,LWC V2.10 B1813,2013-10-20 07:56:00,